Year,Month,Day,Hour,Minute,Value (Times are PST for temperature in C)
2012,12,04,00,00,6.50
2012,12,04,00,01,6.50
2012,12,04,00,02,6.50
2012,12,04,00,03,6.50
2012,12,04,00,04,6.50
2012,12,04,00,05,6.50
2012,12,04,00,06,6.50
2012,12,04,00,07,6.60
2012,12,04,00,08,6.60
2012,12,04,00,09,6.60
2012,12,04,00,10,6.60
2012,12,04,00,11,6.60
2012,12,04,00,12,6.60
2012,12,04,00,13,6.60
2012,12,04,00,14,6.60
2012,12,04,00,15,6.60
2012,12,04,00,16,6.60
2012,12,04,00,17,6.60
2012,12,04,00,18,6.60
2012,12,04,00,19,6.60
2012,12,04,00,20,6.60
2012,12,04,00,21,6.60
2012,12,04,00,22,6.60
2012,12,04,00,23,6.60
2012,12,04,00,24,6.60
2012,12,04,00,25,6.60
2012,12,04,00,26,6.60
2012,12,04,00,27,6.60
2012,12,04,00,28,6.60
2012,12,04,00,29,6.70
2012,12,04,00,30,6.70
2012,12,04,00,31,6.70
2012,12,04,00,32,6.70
2012,12,04,00,33,6.70
2012,12,04,00,34,6.70
2012,12,04,00,35,6.70
2012,12,04,00,36,6.70
2012,12,04,00,37,6.70
2012,12,04,00,38,6.70
2012,12,04,00,39,6.70
2012,12,04,00,40,6.70
2012,12,04,00,41,6.70
2012,12,04,00,42,6.70
2012,12,04,00,43,6.70
2012,12,04,00,44,6.70
2012,12,04,00,45,6.70
2012,12,04,00,46,6.70
2012,12,04,00,47,6.70
2012,12,04,00,48,6.70
2012,12,04,00,49,6.70
2012,12,04,00,50,6.70
2012,12,04,00,51,6.70
2012,12,04,00,52,6.60
2012,12,04,00,53,6.60
2012,12,04,00,54,6.60
2012,12,04,00,55,6.60
2012,12,04,00,56,6.60
2012,12,04,00,57,6.60
2012,12,04,00,58,6.60
2012,12,04,00,59,6.60
2012,12,04,01,00,6.60
2012,12,04,01,01,6.60
2012,12,04,01,02,6.60
2012,12,04,01,03,6.60
2012,12,04,01,04,6.60
2012,12,04,01,05,6.60
2012,12,04,01,06,6.60
2012,12,04,01,07,6.60
2012,12,04,01,08,6.60
2012,12,04,01,09,6.60
2012,12,04,01,10,6.60
2012,12,04,01,11,6.60
2012,12,04,01,12,6.60
2012,12,04,01,13,6.60
2012,12,04,01,14,6.60
2012,12,04,01,15,6.60
2012,12,04,01,16,6.60
2012,12,04,01,17,6.60
2012,12,04,01,18,6.60
2012,12,04,01,19,6.60
2012,12,04,01,20,6.60
2012,12,04,01,21,6.60
2012,12,04,01,22,6.60
2012,12,04,01,23,6.60
2012,12,04,01,24,6.60
2012,12,04,01,25,6.60
2012,12,04,01,26,6.60
2012,12,04,01,27,6.60
2012,12,04,01,28,6.60
2012,12,04,01,29,6.60
2012,12,04,01,30,6.60
2012,12,04,01,31,6.60
2012,12,04,01,32,6.60
2012,12,04,01,33,6.60
2012,12,04,01,34,6.60
2012,12,04,01,35,6.60
2012,12,04,01,36,6.60
2012,12,04,01,37,6.60
2012,12,04,01,38,6.60
2012,12,04,01,39,6.70
2012,12,04,01,40,6.60
2012,12,04,01,41,6.60
2012,12,04,01,42,6.60
2012,12,04,01,43,6.60
2012,12,04,01,44,6.60
2012,12,04,01,45,6.60
2012,12,04,01,46,6.70
2012,12,04,01,47,6.70
2012,12,04,01,48,6.70
2012,12,04,01,49,6.70
2012,12,04,01,50,6.70
2012,12,04,01,51,6.70
2012,12,04,01,52,6.70
2012,12,04,01,53,6.70
2012,12,04,01,54,6.70
2012,12,04,01,55,6.70
2012,12,04,01,56,6.70
2012,12,04,01,57,6.70
2012,12,04,01,58,6.70
2012,12,04,01,59,6.70
2012,12,04,02,00,6.80
2012,12,04,02,01,6.80
2012,12,04,02,02,6.80
2012,12,04,02,03,6.80
2012,12,04,02,04,6.80
2012,12,04,02,05,6.80
2012,12,04,02,06,6.80
2012,12,04,02,07,6.80
2012,12,04,02,08,6.80
2012,12,04,02,09,6.80
2012,12,04,02,10,6.80
2012,12,04,02,11,6.80
2012,12,04,02,12,6.80
2012,12,04,02,13,6.80
2012,12,04,02,14,6.80
2012,12,04,02,15,6.80
2012,12,04,02,16,6.80
2012,12,04,02,17,6.80
2012,12,04,02,18,6.80
2012,12,04,02,19,6.80
2012,12,04,02,20,6.80
2012,12,04,02,21,6.80
2012,12,04,02,22,6.80
2012,12,04,02,23,6.80
2012,12,04,02,24,6.70
2012,12,04,02,25,6.70
2012,12,04,02,26,6.70
2012,12,04,02,27,6.70
2012,12,04,02,28,6.70
2012,12,04,02,29,6.70
2012,12,04,02,30,6.70
2012,12,04,02,31,6.70
2012,12,04,02,32,6.70
2012,12,04,02,33,6.70
2012,12,04,02,34,6.70
2012,12,04,02,35,6.70
2012,12,04,02,36,6.70
2012,12,04,02,37,6.70
2012,12,04,02,38,6.70
2012,12,04,02,39,6.70
2012,12,04,02,40,6.70
2012,12,04,02,41,6.70
2012,12,04,02,42,6.70
2012,12,04,02,43,6.70
2012,12,04,02,44,6.70
2012,12,04,02,45,6.70
2012,12,04,02,46,6.70
2012,12,04,02,47,6.70
2012,12,04,02,48,6.70
2012,12,04,02,49,6.70
2012,12,04,02,50,6.70
2012,12,04,02,51,6.70
2012,12,04,02,52,6.60
2012,12,04,02,53,6.60
2012,12,04,02,54,6.60
2012,12,04,02,55,6.60
2012,12,04,02,56,6.60
2012,12,04,02,57,6.50
2012,12,04,02,58,6.50
2012,12,04,02,59,6.50
2012,12,04,03,00,6.50
2012,12,04,03,01,6.40
2012,12,04,03,02,6.40
2012,12,04,03,06,6.40
2012,12,04,03,07,6.40
2012,12,04,03,08,6.30
2012,12,04,03,09,6.30
2012,12,04,03,10,6.30
2012,12,04,03,11,6.30
2012,12,04,03,12,6.30
2012,12,04,03,13,6.30
2012,12,04,03,14,6.30
2012,12,04,03,15,6.30
2012,12,04,03,16,6.30
2012,12,04,03,17,6.30
2012,12,04,03,18,6.30
2012,12,04,03,19,6.30
2012,12,04,03,20,6.30
2012,12,04,03,21,6.30
2012,12,04,03,22,6.20
2012,12,04,03,23,6.20
2012,12,04,03,24,6.20
2012,12,04,03,25,6.20
2012,12,04,03,26,6.20
2012,12,04,03,27,6.20
2012,12,04,03,28,6.20
2012,12,04,03,29,6.20
2012,12,04,03,30,6.20
2012,12,04,03,31,6.20
2012,12,04,03,32,6.10
2012,12,04,03,33,6.10
2012,12,04,03,34,6.10
2012,12,04,03,35,6.10
2012,12,04,03,36,6.10
2012,12,04,03,37,6.10
2012,12,04,03,38,6.10
2012,12,04,03,39,6.10
2012,12,04,03,40,6.10
2012,12,04,03,41,6.10
2012,12,04,03,42,6.10
2012,12,04,03,43,6.10
2012,12,04,03,44,6.10
2012,12,04,03,45,6.10
2012,12,04,03,46,6.10
2012,12,04,03,47,6.10
2012,12,04,03,48,6.10
2012,12,04,03,49,6.10
2012,12,04,03,50,6.10
2012,12,04,03,51,6.10
2012,12,04,03,52,6.10
2012,12,04,03,53,6.10
2012,12,04,03,54,6.10
2012,12,04,03,55,6.10
2012,12,04,03,56,6.10
2012,12,04,03,57,6.10
2012,12,04,03,58,6.10
2012,12,04,03,59,6.10
2012,12,04,04,00,6.10
2012,12,04,04,01,6.10
2012,12,04,04,02,6.10
2012,12,04,04,03,6.10
2012,12,04,04,04,6.10
2012,12,04,04,05,6.10
2012,12,04,04,06,6.10
2012,12,04,04,07,6.10
2012,12,04,04,08,6.10
2012,12,04,04,09,6.10
2012,12,04,04,10,6.10
2012,12,04,04,11,6.10
2012,12,04,04,12,6.10
2012,12,04,04,13,6.10
2012,12,04,04,14,6.10
2012,12,04,04,15,6.10
2012,12,04,04,16,6.10
2012,12,04,04,17,6.10
2012,12,04,04,18,6.10
2012,12,04,04,19,6.10
2012,12,04,04,20,6.10
2012,12,04,04,21,6.10
2012,12,04,04,22,6.10
2012,12,04,04,23,6.10
2012,12,04,04,24,6.10
2012,12,04,04,25,6.10
2012,12,04,04,26,6.10
2012,12,04,04,27,6.10
2012,12,04,04,28,6.10
2012,12,04,04,29,6.10
2012,12,04,04,30,6.20
2012,12,04,04,31,6.20
2012,12,04,04,32,6.20
2012,12,04,04,33,6.20
2012,12,04,04,34,6.20
2012,12,04,04,35,6.20
2012,12,04,04,36,6.20
2012,12,04,04,37,6.20
2012,12,04,04,38,6.20
2012,12,04,04,39,6.20
2012,12,04,04,40,6.20
2012,12,04,04,41,6.20
2012,12,04,04,42,6.20
2012,12,04,04,43,6.20
2012,12,04,04,44,6.20
2012,12,04,04,45,6.20
2012,12,04,04,46,6.30
2012,12,04,04,47,6.30
2012,12,04,04,48,6.30
2012,12,04,04,49,6.30
2012,12,04,04,50,6.30
2012,12,04,04,51,6.30
2012,12,04,04,52,6.30
2012,12,04,04,53,6.30
2012,12,04,04,54,6.30
2012,12,04,04,55,6.30
2012,12,04,04,56,6.30
2012,12,04,04,57,6.30
2012,12,04,04,58,6.30
2012,12,04,04,59,6.30
2012,12,04,05,00,6.30
2012,12,04,05,01,6.30
2012,12,04,05,02,6.30
2012,12,04,05,03,6.30
2012,12,04,05,04,6.30
2012,12,04,05,05,6.40
2012,12,04,05,06,6.40
2012,12,04,05,07,6.40
2012,12,04,05,08,6.40
2012,12,04,05,09,6.40
2012,12,04,05,10,6.40
2012,12,04,05,11,6.40
2012,12,04,05,12,6.40
2012,12,04,05,13,6.40
2012,12,04,05,14,6.40
2012,12,04,05,15,6.40
2012,12,04,05,16,6.40
2012,12,04,05,17,6.40
2012,12,04,05,18,6.40
2012,12,04,05,19,6.40
2012,12,04,05,20,6.40
2012,12,04,05,21,6.40
2012,12,04,05,22,6.40
2012,12,04,05,23,6.40
2012,12,04,05,24,6.40
2012,12,04,05,25,6.40
2012,12,04,05,26,6.40
2012,12,04,05,27,6.40
2012,12,04,05,28,6.40
2012,12,04,05,29,6.40
2012,12,04,05,30,6.40
2012,12,04,05,31,6.40
2012,12,04,05,32,6.40
2012,12,04,05,33,6.40
2012,12,04,05,34,6.40
2012,12,04,05,35,6.40
2012,12,04,05,36,6.40
2012,12,04,05,37,6.40
2012,12,04,05,38,6.40
2012,12,04,05,39,6.40
2012,12,04,05,40,6.40
2012,12,04,05,41,6.40
2012,12,04,05,42,6.40
2012,12,04,05,43,6.40
2012,12,04,05,44,6.40
2012,12,04,05,45,6.40
2012,12,04,05,46,6.40
2012,12,04,05,47,6.40
2012,12,04,05,48,6.40
2012,12,04,05,49,6.40
2012,12,04,05,50,6.40
2012,12,04,05,51,6.40
2012,12,04,05,52,6.40
2012,12,04,05,53,6.40
2012,12,04,05,54,6.40
2012,12,04,05,55,6.40
2012,12,04,05,56,6.40
2012,12,04,05,57,6.40
2012,12,04,05,58,6.40
2012,12,04,05,59,6.40
2012,12,04,06,00,6.40
2012,12,04,06,01,6.50
2012,12,04,06,02,6.50
2012,12,04,06,03,6.60
2012,12,04,06,04,6.70
2012,12,04,06,05,6.70
2012,12,04,06,06,6.70
2012,12,04,06,07,6.80
2012,12,04,06,08,6.90
2012,12,04,06,09,6.90
2012,12,04,06,10,7.00
2012,12,04,06,11,7.00
2012,12,04,06,12,7.00
2012,12,04,06,13,7.10
2012,12,04,06,14,7.20
2012,12,04,06,15,7.20
2012,12,04,06,16,7.20
2012,12,04,06,17,7.30
2012,12,04,06,18,7.30
2012,12,04,06,19,7.40
2012,12,04,06,20,7.50
2012,12,04,06,21,7.60
2012,12,04,06,22,7.70
2012,12,04,06,23,7.80
2012,12,04,06,24,7.80
2012,12,04,06,25,7.90
2012,12,04,06,26,7.90
2012,12,04,06,27,8.00
2012,12,04,06,28,8.10
2012,12,04,06,29,8.10
2012,12,04,06,30,8.10
2012,12,04,06,31,8.20
2012,12,04,06,32,8.20
2012,12,04,06,33,8.20
2012,12,04,06,34,8.20
2012,12,04,06,35,8.20
2012,12,04,06,36,8.20
2012,12,04,06,37,8.20
2012,12,04,06,38,8.20
2012,12,04,06,39,8.30
2012,12,04,06,40,8.30
2012,12,04,06,41,8.30
2012,12,04,06,42,8.30
2012,12,04,06,43,8.30
2012,12,04,06,44,8.30
2012,12,04,06,45,8.30
2012,12,04,06,46,8.30
2012,12,04,06,47,8.30
2012,12,04,06,48,8.30
2012,12,04,06,49,8.30
2012,12,04,06,50,8.30
2012,12,04,06,51,8.30
2012,12,04,06,52,8.30
2012,12,04,06,53,8.30
2012,12,04,06,54,8.30
2012,12,04,06,55,8.30
2012,12,04,06,56,8.30
2012,12,04,06,57,8.20
2012,12,04,06,58,8.20
2012,12,04,06,59,8.20
2012,12,04,07,00,8.20
2012,12,04,07,01,8.20
2012,12,04,07,02,8.20
2012,12,04,07,03,8.20
2012,12,04,07,04,8.10
2012,12,04,07,05,8.10
2012,12,04,07,06,8.10
2012,12,04,07,07,8.10
2012,12,04,07,08,8.10
2012,12,04,07,09,8.10
2012,12,04,07,10,8.10
2012,12,04,07,11,8.00
2012,12,04,07,12,8.00
2012,12,04,07,13,8.00
2012,12,04,07,14,8.00
2012,12,04,07,15,8.00
2012,12,04,07,16,7.90
2012,12,04,07,17,7.90
2012,12,04,07,18,7.90
2012,12,04,07,19,7.90
2012,12,04,07,20,7.90
2012,12,04,07,21,7.90
2012,12,04,07,22,7.90
2012,12,04,07,23,7.90
2012,12,04,07,24,7.90
2012,12,04,07,25,7.90
2012,12,04,07,26,7.90
2012,12,04,07,27,7.90
2012,12,04,07,28,7.90
2012,12,04,07,29,7.90
2012,12,04,07,30,7.90
2012,12,04,07,31,7.90
2012,12,04,07,32,7.90
2012,12,04,07,33,7.90
2012,12,04,07,34,7.90
2012,12,04,07,35,7.90
2012,12,04,07,36,7.90
2012,12,04,07,37,7.90
2012,12,04,07,38,7.80
2012,12,04,07,39,7.80
2012,12,04,07,40,7.80
2012,12,04,07,41,7.70
2012,12,04,07,42,7.70
2012,12,04,07,43,7.70
2012,12,04,07,44,7.70
2012,12,04,07,45,7.70
2012,12,04,07,46,7.70
2012,12,04,07,47,7.60
2012,12,04,07,48,7.60
2012,12,04,07,49,7.60
2012,12,04,07,50,7.60
2012,12,04,07,51,7.60
2012,12,04,07,52,7.60
2012,12,04,07,53,7.60
2012,12,04,07,54,7.60
2012,12,04,07,55,7.60
2012,12,04,07,56,7.60
2012,12,04,07,57,7.60
2012,12,04,07,58,7.60
2012,12,04,07,59,7.60
2012,12,04,08,00,7.60
2012,12,04,08,01,7.60
2012,12,04,08,02,7.60
2012,12,04,08,03,7.60
2012,12,04,08,04,7.60
2012,12,04,08,05,7.60
2012,12,04,08,06,7.60
2012,12,04,08,07,7.50
2012,12,04,08,08,7.50
2012,12,04,08,09,7.50
2012,12,04,08,10,7.60
2012,12,04,08,11,7.60
2012,12,04,08,12,7.60
2012,12,04,08,13,7.60
2012,12,04,08,14,7.60
2012,12,04,08,15,7.50
2012,12,04,08,16,7.40
2012,12,04,08,17,7.40
2012,12,04,08,18,7.40
2012,12,04,08,19,7.40
2012,12,04,08,20,7.40
2012,12,04,08,21,7.40
2012,12,04,08,22,7.30
2012,12,04,08,23,7.30
2012,12,04,08,24,7.30
2012,12,04,08,25,7.30
2012,12,04,08,26,7.30
2012,12,04,08,27,7.30
2012,12,04,08,28,7.30
2012,12,04,08,29,7.30
2012,12,04,08,30,7.30
2012,12,04,08,31,7.30
2012,12,04,08,32,7.30
2012,12,04,08,33,7.40
2012,12,04,08,34,7.50
2012,12,04,08,35,7.50
2012,12,04,08,36,7.60
2012,12,04,08,37,7.60
2012,12,04,08,38,7.60
2012,12,04,08,39,7.60
2012,12,04,08,40,7.50
2012,12,04,08,41,7.50
2012,12,04,08,42,7.50
2012,12,04,08,43,7.50
2012,12,04,08,44,7.50
2012,12,04,08,45,7.50
2012,12,04,08,46,7.50
2012,12,04,08,47,7.50
2012,12,04,08,48,7.40
2012,12,04,08,49,7.40
2012,12,04,08,50,7.40
2012,12,04,08,51,7.40
2012,12,04,08,52,7.40
2012,12,04,08,53,7.40
2012,12,04,08,54,7.40
2012,12,04,08,55,7.40
2012,12,04,08,56,7.50
2012,12,04,08,57,7.50
2012,12,04,08,58,7.50
2012,12,04,08,59,7.60
2012,12,04,09,00,7.60
2012,12,04,09,01,7.60
2012,12,04,09,02,7.70
2012,12,04,09,03,7.70
2012,12,04,09,04,7.70
2012,12,04,09,05,7.70
2012,12,04,09,06,7.70
2012,12,04,09,07,7.70
2012,12,04,09,08,7.70
2012,12,04,09,09,7.70
2012,12,04,09,10,7.70
2012,12,04,09,11,7.70
2012,12,04,09,12,7.70
2012,12,04,09,13,7.70
2012,12,04,09,14,7.70
2012,12,04,09,15,7.70
2012,12,04,09,16,7.70
2012,12,04,09,17,7.70
2012,12,04,09,18,7.70
2012,12,04,09,19,7.70
2012,12,04,09,20,7.70
2012,12,04,09,21,7.70
2012,12,04,09,22,7.70
2012,12,04,09,23,7.70
2012,12,04,09,24,7.70
2012,12,04,09,25,7.70
2012,12,04,09,26,7.70
2012,12,04,09,27,7.70
2012,12,04,09,28,7.70
2012,12,04,09,29,7.70
2012,12,04,09,30,7.70
2012,12,04,09,31,7.70
2012,12,04,09,32,7.70
2012,12,04,09,33,7.70
2012,12,04,09,34,7.70
2012,12,04,09,35,7.70
2012,12,04,09,36,7.70
2012,12,04,09,37,7.80
2012,12,04,09,38,7.80
2012,12,04,09,39,7.80
2012,12,04,09,40,7.80
2012,12,04,09,41,7.80
2012,12,04,09,42,7.80
2012,12,04,09,43,7.80
2012,12,04,09,44,7.80
2012,12,04,09,45,7.80
2012,12,04,09,46,7.80
2012,12,04,09,47,7.80
2012,12,04,09,48,7.80
2012,12,04,09,49,7.70
2012,12,04,09,50,7.70
2012,12,04,09,51,7.70
2012,12,04,09,52,7.70
2012,12,04,09,53,7.70
2012,12,04,09,54,7.70
2012,12,04,09,55,7.70
2012,12,04,09,56,7.70
2012,12,04,09,57,7.70
2012,12,04,09,58,7.70
2012,12,04,09,59,7.70
2012,12,04,10,00,7.70
2012,12,04,10,01,7.70
2012,12,04,10,02,7.70
2012,12,04,10,03,7.70
2012,12,04,10,04,7.70
2012,12,04,10,05,7.70
2012,12,04,10,06,7.70
2012,12,04,10,07,7.70
2012,12,04,10,08,7.70
2012,12,04,10,09,7.70
2012,12,04,10,10,7.70
2012,12,04,10,11,7.70
2012,12,04,10,12,7.70
2012,12,04,10,13,7.70
2012,12,04,10,14,7.80
2012,12,04,10,15,7.80
2012,12,04,10,16,7.80
2012,12,04,10,17,7.80
2012,12,04,10,18,7.90
2012,12,04,10,19,7.90
2012,12,04,10,20,7.90
2012,12,04,10,21,7.90
2012,12,04,10,22,7.90
2012,12,04,10,23,8.00
2012,12,04,10,24,8.00
2012,12,04,10,25,8.00
2012,12,04,10,26,8.00
2012,12,04,10,27,8.10
2012,12,04,10,28,8.10
2012,12,04,10,29,8.10
2012,12,04,10,30,8.10
2012,12,04,10,31,8.20
2012,12,04,10,32,8.20
2012,12,04,10,33,8.20
2012,12,04,10,34,8.20
2012,12,04,10,35,8.30
2012,12,04,10,36,8.30
2012,12,04,10,37,8.30
2012,12,04,10,38,8.30
2012,12,04,10,39,8.30
2012,12,04,10,40,8.30
2012,12,04,10,41,8.30
2012,12,04,10,42,8.30
2012,12,04,10,43,8.30
2012,12,04,10,44,8.30
2012,12,04,10,45,8.30
2012,12,04,10,46,8.30
2012,12,04,10,47,8.30
2012,12,04,10,48,8.30
2012,12,04,10,49,8.40
2012,12,04,10,50,8.40
2012,12,04,10,51,8.40
2012,12,04,10,52,8.40
2012,12,04,10,53,8.40
2012,12,04,10,54,8.40
2012,12,04,10,55,8.40
2012,12,04,10,56,8.40
2012,12,04,10,57,8.40
2012,12,04,10,58,8.40
2012,12,04,10,59,8.40
2012,12,04,11,00,8.40
2012,12,04,11,01,8.40
2012,12,04,11,02,8.40
2012,12,04,11,03,8.40
2012,12,04,11,04,8.40
2012,12,04,11,05,8.40
2012,12,04,11,06,8.40
2012,12,04,11,07,8.40
2012,12,04,11,08,8.40
2012,12,04,11,09,8.40
2012,12,04,11,10,8.40
2012,12,04,11,11,8.40
2012,12,04,11,12,8.40
2012,12,04,11,13,8.40
2012,12,04,11,14,8.50
2012,12,04,11,15,8.50
2012,12,04,11,16,8.50
2012,12,04,11,17,8.50
2012,12,04,11,18,8.60
2012,12,04,11,19,8.60
2012,12,04,11,20,8.60
2012,12,04,11,21,8.60
2012,12,04,11,22,8.60
2012,12,04,11,23,8.60
2012,12,04,11,24,8.70
2012,12,04,11,25,8.70
2012,12,04,11,26,8.70
2012,12,04,11,27,8.60
2012,12,04,11,28,8.60
2012,12,04,11,29,8.50
2012,12,04,11,30,8.50
2012,12,04,11,31,8.50
2012,12,04,11,32,8.40
2012,12,04,11,33,8.40
2012,12,04,11,34,8.40
2012,12,04,11,35,8.40
2012,12,04,11,36,8.30
2012,12,04,11,37,8.30
2012,12,04,11,38,8.30
2012,12,04,11,39,8.30
2012,12,04,11,40,8.30
2012,12,04,11,41,8.30
2012,12,04,11,42,8.30
2012,12,04,11,43,8.30
2012,12,04,11,44,8.20
2012,12,04,11,45,8.20
2012,12,04,11,46,8.20
2012,12,04,11,47,8.20
2012,12,04,11,48,8.20
2012,12,04,11,49,8.20
2012,12,04,11,50,8.20
2012,12,04,11,51,8.20
2012,12,04,11,52,8.20
2012,12,04,11,53,8.20
2012,12,04,11,54,8.20
2012,12,04,11,55,8.20
2012,12,04,11,56,8.20
2012,12,04,11,57,8.10
2012,12,04,11,58,8.10
2012,12,04,11,59,8.10
2012,12,04,12,00,8.10
2012,12,04,12,01,8.10
2012,12,04,12,02,8.10
2012,12,04,12,03,8.10
2012,12,04,12,04,8.10
2012,12,04,12,05,8.10
2012,12,04,12,06,8.00
2012,12,04,12,07,8.00
2012,12,04,12,08,8.00
2012,12,04,12,09,8.00
2012,12,04,12,10,7.90
2012,12,04,12,11,7.90
2012,12,04,12,12,7.90
2012,12,04,12,13,7.80
2012,12,04,12,14,7.80
2012,12,04,12,15,7.80
2012,12,04,12,16,7.70
2012,12,04,12,17,7.70
2012,12,04,12,18,7.70
2012,12,04,12,19,7.60
2012,12,04,12,20,7.60
2012,12,04,12,21,7.60
2012,12,04,12,22,7.60
2012,12,04,12,23,7.60
2012,12,04,12,24,7.50
2012,12,04,12,25,7.50
2012,12,04,12,26,7.40
2012,12,04,12,27,7.40
2012,12,04,12,28,7.40
2012,12,04,12,29,7.40
2012,12,04,12,30,7.30
2012,12,04,12,31,7.30
2012,12,04,12,32,7.30
2012,12,04,12,33,7.30
2012,12,04,12,34,7.20
2012,12,04,12,35,7.20
2012,12,04,12,36,7.20
2012,12,04,12,37,7.20
2012,12,04,12,38,7.10
2012,12,04,12,39,7.10
2012,12,04,12,40,7.10
2012,12,04,12,41,7.10
2012,12,04,12,42,7.10
2012,12,04,12,43,7.00
2012,12,04,12,44,7.00
2012,12,04,12,45,6.90
2012,12,04,12,46,6.90
2012,12,04,12,47,6.90
2012,12,04,12,48,6.90
2012,12,04,12,49,6.90
2012,12,04,12,50,6.90
2012,12,04,12,51,6.90
2012,12,04,12,52,6.80
2012,12,04,12,53,6.80
2012,12,04,12,54,6.80
2012,12,04,12,55,6.80
2012,12,04,12,56,6.80
2012,12,04,12,57,6.80
2012,12,04,12,58,6.80
2012,12,04,12,59,6.80
2012,12,04,13,00,6.80
2012,12,04,13,01,6.80
2012,12,04,13,02,6.80
2012,12,04,13,03,6.80
2012,12,04,13,04,6.80
2012,12,04,13,05,6.80
2012,12,04,13,06,6.80
2012,12,04,13,07,6.80
2012,12,04,13,08,6.80
2012,12,04,13,09,6.80
2012,12,04,13,10,6.80
2012,12,04,13,11,6.80
2012,12,04,13,12,6.80
2012,12,04,13,13,6.80
2012,12,04,13,14,6.80
2012,12,04,13,15,6.80
2012,12,04,13,16,6.80
2012,12,04,13,17,6.80
2012,12,04,13,18,6.80
2012,12,04,13,19,6.80
2012,12,04,13,20,6.70
2012,12,04,13,21,6.70
2012,12,04,13,22,6.60
2012,12,04,13,23,6.60
2012,12,04,13,24,6.60
2012,12,04,13,25,6.60
2012,12,04,13,26,6.60
2012,12,04,13,27,6.70
2012,12,04,13,28,6.70
2012,12,04,13,29,6.70
2012,12,04,13,30,6.80
2012,12,04,13,31,6.80
2012,12,04,13,32,6.80
2012,12,04,13,33,6.80
2012,12,04,13,34,6.80
2012,12,04,13,35,6.80
2012,12,04,13,36,6.80
2012,12,04,13,37,6.80
2012,12,04,13,38,6.70
2012,12,04,13,39,6.70
2012,12,04,13,40,6.70
2012,12,04,13,41,6.70
2012,12,04,13,42,6.60
2012,12,04,13,43,6.60
2012,12,04,13,44,6.60
2012,12,04,13,45,6.60
2012,12,04,13,46,6.50
2012,12,04,13,47,6.50
2012,12,04,13,48,6.50
2012,12,04,13,49,6.50
2012,12,04,13,50,6.50
2012,12,04,13,51,6.50
2012,12,04,13,52,6.50
2012,12,04,13,53,6.50
2012,12,04,13,54,6.50
2012,12,04,13,55,6.50
2012,12,04,13,56,6.50
2012,12,04,13,57,6.50
2012,12,04,13,58,6.50
2012,12,04,13,59,6.50
2012,12,04,14,00,6.50
2012,12,04,14,01,6.50
2012,12,04,14,02,6.50
2012,12,04,14,03,6.40
2012,12,04,14,04,6.40
2012,12,04,14,05,6.40
2012,12,04,14,06,6.40
2012,12,04,14,07,6.30
2012,12,04,14,08,6.30
2012,12,04,14,09,6.30
2012,12,04,14,10,6.30
2012,12,04,14,11,6.30
2012,12,04,14,12,6.30
2012,12,04,14,13,6.30
2012,12,04,14,14,6.30
2012,12,04,14,15,6.30
2012,12,04,14,16,6.20
2012,12,04,14,17,6.20
2012,12,04,14,18,6.20
2012,12,04,14,19,6.20
2012,12,04,14,20,6.20
2012,12,04,14,21,6.20
2012,12,04,14,22,6.20
2012,12,04,14,23,6.20
2012,12,04,14,24,6.20
2012,12,04,14,25,6.20
2012,12,04,14,26,6.20
2012,12,04,14,27,6.20
2012,12,04,14,28,6.10
2012,12,04,14,29,6.10
2012,12,04,14,30,6.10
2012,12,04,14,31,6.10
2012,12,04,14,32,6.10
2012,12,04,14,33,6.10
2012,12,04,14,34,6.10
2012,12,04,14,35,6.00
2012,12,04,14,36,6.00
2012,12,04,14,37,6.00
2012,12,04,14,38,6.00
2012,12,04,14,39,6.00
2012,12,04,14,40,6.00
2012,12,04,14,41,5.90
2012,12,04,14,42,5.90
2012,12,04,14,43,5.90
2012,12,04,14,44,5.90
2012,12,04,14,45,5.90
2012,12,04,14,46,5.90
2012,12,04,14,47,5.80
2012,12,04,14,48,5.80
2012,12,04,14,49,5.80
2012,12,04,14,50,5.80
2012,12,04,14,51,5.80
2012,12,04,14,52,5.70
2012,12,04,14,53,5.70
2012,12,04,14,54,5.70
2012,12,04,14,55,5.70
2012,12,04,14,56,5.70
2012,12,04,14,57,5.70
2012,12,04,14,58,5.70
2012,12,04,14,59,5.70
2012,12,04,15,00,5.60
2012,12,04,15,01,5.60
2012,12,04,15,02,5.60
2012,12,04,15,03,5.60
2012,12,04,15,04,5.50
2012,12,04,15,05,5.50
2012,12,04,15,06,5.50
2012,12,04,15,07,5.40
2012,12,04,15,08,5.40
2012,12,04,15,09,5.40
2012,12,04,15,10,5.40
2012,12,04,15,11,5.40
2012,12,04,15,12,5.40
2012,12,04,15,13,5.40
2012,12,04,15,14,5.40
2012,12,04,15,15,5.30
2012,12,04,15,16,5.30
2012,12,04,15,17,5.30
2012,12,04,15,18,5.30
2012,12,04,15,19,5.30
2012,12,04,15,20,5.20
2012,12,04,15,21,5.20
2012,12,04,15,22,5.20
2012,12,04,15,23,5.20
2012,12,04,15,24,5.20
2012,12,04,15,25,5.20
2012,12,04,15,26,5.20
2012,12,04,15,27,5.10
2012,12,04,15,28,5.10
2012,12,04,15,29,5.10
2012,12,04,15,30,5.10
2012,12,04,15,31,5.10
2012,12,04,15,32,5.10
2012,12,04,15,33,5.10
2012,12,04,15,34,5.10
2012,12,04,15,35,5.00
2012,12,04,15,36,5.00
2012,12,04,15,37,5.00
2012,12,04,15,38,5.00
2012,12,04,15,39,5.00
2012,12,04,15,40,4.90
2012,12,04,15,41,4.90
2012,12,04,15,42,4.90
2012,12,04,15,43,4.90
2012,12,04,15,44,4.90
2012,12,04,15,45,4.90
2012,12,04,15,46,4.90
2012,12,04,15,47,4.90
2012,12,04,15,48,4.90
2012,12,04,15,49,4.90
2012,12,04,15,50,4.90
2012,12,04,15,51,4.90
2012,12,04,15,52,4.90
2012,12,04,15,53,4.90
2012,12,04,15,54,4.80
2012,12,04,15,55,4.80
2012,12,04,15,56,4.80
2012,12,04,15,57,4.80
2012,12,04,15,58,4.80
2012,12,04,15,59,4.80
2012,12,04,16,00,4.80
2012,12,04,16,01,4.80
2012,12,04,16,02,4.80
2012,12,04,16,03,4.80
2012,12,04,16,04,4.80
2012,12,04,16,05,4.80
2012,12,04,16,06,4.80
2012,12,04,16,07,4.70
2012,12,04,16,08,4.70
2012,12,04,16,09,4.70
2012,12,04,16,10,4.70
2012,12,04,16,11,4.70
2012,12,04,16,12,4.70
2012,12,04,16,13,4.70
2012,12,04,16,14,4.70
2012,12,04,16,15,4.80
2012,12,04,16,16,4.80
2012,12,04,16,17,4.80
2012,12,04,16,18,4.80
2012,12,04,16,19,4.80
2012,12,04,16,20,4.80
2012,12,04,16,21,4.80
2012,12,04,16,22,4.80
2012,12,04,16,23,4.80
2012,12,04,16,24,4.80
2012,12,04,16,25,4.80
2012,12,04,16,26,4.80
2012,12,04,16,27,4.80
2012,12,04,16,28,4.80
2012,12,04,16,29,4.90
2012,12,04,16,30,4.90
2012,12,04,16,31,4.90
2012,12,04,16,32,4.90
2012,12,04,16,33,5.00
2012,12,04,16,34,5.00
2012,12,04,16,35,5.00
2012,12,04,16,36,5.00
2012,12,04,16,37,5.00
2012,12,04,16,38,5.00
2012,12,04,16,39,5.00
2012,12,04,16,40,5.00
2012,12,04,16,41,5.00
2012,12,04,16,42,5.00
2012,12,04,16,43,4.90
2012,12,04,16,44,4.90
2012,12,04,16,45,4.90
2012,12,04,16,46,4.90
2012,12,04,16,47,4.90
2012,12,04,16,48,5.00
2012,12,04,16,49,5.00
2012,12,04,16,50,5.00
2012,12,04,16,51,5.00
2012,12,04,16,52,5.00
2012,12,04,16,53,5.00
2012,12,04,16,54,5.00
2012,12,04,16,55,5.00
2012,12,04,16,56,5.10
2012,12,04,16,57,5.10
2012,12,04,16,58,5.10
2012,12,04,16,59,5.10
2012,12,04,17,00,5.20
2012,12,04,17,01,5.20
2012,12,04,17,02,5.20
2012,12,04,17,03,5.30
2012,12,04,17,04,5.30
2012,12,04,17,05,5.30
2012,12,04,17,06,5.30
2012,12,04,17,07,5.30
2012,12,04,17,08,5.30
2012,12,04,17,09,5.30
2012,12,04,17,10,5.30
2012,12,04,17,11,5.40
2012,12,04,17,12,5.40
2012,12,04,17,13,5.40
2012,12,04,17,14,5.40
2012,12,04,17,15,5.40
2012,12,04,17,16,5.40
2012,12,04,17,17,5.40
2012,12,04,17,18,5.40
2012,12,04,17,19,5.40
2012,12,04,17,20,5.40
2012,12,04,17,21,5.40
2012,12,04,17,22,5.40
2012,12,04,17,23,5.30
2012,12,04,17,24,5.30
2012,12,04,17,25,5.30
2012,12,04,17,26,5.30
2012,12,04,17,27,5.30
2012,12,04,17,28,5.30
2012,12,04,17,29,5.30
2012,12,04,17,30,5.30
2012,12,04,17,31,5.30
2012,12,04,17,32,5.30
2012,12,04,17,33,5.30
2012,12,04,17,34,5.30
2012,12,04,17,35,5.30
2012,12,04,17,36,5.30
2012,12,04,17,37,5.30
2012,12,04,17,38,5.30
2012,12,04,17,39,5.30
2012,12,04,17,40,5.30
2012,12,04,17,41,5.30
2012,12,04,17,42,5.30
2012,12,04,17,43,5.30
2012,12,04,17,44,5.30
2012,12,04,17,45,5.30
2012,12,04,17,46,5.30
2012,12,04,17,47,5.30
2012,12,04,17,48,5.30
2012,12,04,17,49,5.30
2012,12,04,17,50,5.30
2012,12,04,17,51,5.30
2012,12,04,17,52,5.30
2012,12,04,17,53,5.30
2012,12,04,17,54,5.30
2012,12,04,17,55,5.30
2012,12,04,17,56,5.30
2012,12,04,17,57,5.40
2012,12,04,17,58,5.40
2012,12,04,17,59,5.40
2012,12,04,18,00,5.40
2012,12,04,18,01,5.40
2012,12,04,18,02,5.40
2012,12,04,18,03,5.40
2012,12,04,18,04,5.40
2012,12,04,18,05,5.40
2012,12,04,18,06,5.40
2012,12,04,18,07,5.40
2012,12,04,18,08,5.30
2012,12,04,18,09,5.30